Вернуться в каталог

COSMOS 2251 DEB

АктивенLEO
NORAD 38197·DEBRIS·🇷🇺 Russia

Запущен Jun 16, 1993 с Plesetsk Cosmodrome

Loading…

Ближайшие Пролёты (ближайшие 24 часа)

TLE

СвежийSource: Space-Track

Эпоха: Sep 14, 2026, 02:55 UTC

1 38197U 93036BSM 26257.12216445  .00023771  00000-0  25443-2 0  9996
2 38197  73.9349 171.4880 0098675 339.9373  19.7936 14.85070241898288

Отслеживайте COSMOS 2251 DEB в реальном времени с AllMySat

Download on the App Store